Погода в ЦЭС

Россия / Хабаровский край     51°07′01″N   132°52′44″E
темп.,
°C
ветер,
м/с
пор.,
м/с
влажн.,
%
обл.,
%
осадки,
мм/ч
давл.,
гПа
погр.,
м
16 мая, вс
вс1601:00+6з4893100 0.9 9961021
04:00+5зюз41096100 1.9 9971159
07:00+5з4995100 0.3 998845
10:00+7з4988100 0.4 999976
13:00+8зсз3883100 0.6 10001173
16:00+11сз366282 0.8 9991260
19:00+12зсз256587 0.2 10001141
22:00+8ююв2282100 0.2 100142
17 мая, пн
пн1701:00+5ююв22900 0.0 100125
04:00+4ююв22895 0.0 100029
07:00+7ююв24775 0.0 999110
10:00+17юз49370 0.0 9961125
13:00+19зюз6103187 0.0 9952630
16:00+19з693213 0.0 9963039
19:00+16з59375 0.0 9981694
22:00+7зсз12636 0.0 100217
18 мая, вт
вт1801:00+5юв22635 0.0 100217
04:00+5юв226196 0.0 100028
07:00+6сз1164100 0.0 99993
10:00+11з2448100 0.1 997755
13:00+15сз444795 0.0 995891
16:00+13с3356100 0.0 995546
19:00+13ссз136199 0.0 998329
22:00+9зюз127410 0.0 100378
19 мая, ср
ср1901:00+5ю1184100 0.0 100411
04:00+3ю21930 0.0 100511
07:00+6зюз29750 0.0 1007467
10:00+10з410295 0.0 10081974
13:00+14зсз61224100 0.0 10073544
16:00+14з51128100 0.0 10073217
19:00+13сз3832100 0.0 10072434
22:00+8в224882 0.0 101041
20 мая, чт
чт2001:00+7вюв2251100 0.0 100829
04:00+7в1154100 0.0 100713
07:00+8ююз0155100 0.0 100477
10:00+15ююз3952100 0.2 10001211
13:00+12ююв1480100 1.4 1001319
16:00+11ссз1388100 2.8 1002255
19:00+13с128024 0.0 1004403
22:00+8всв129580 0.1 100713